| time (UTC) | temp F | wind direction | speed MPH | gust MPH | rain 1hr in | rain 24hr in | rain mn in | humidity % | barometer mb |
| 20260508053213 | 59 | 253 | 2.0 | 3.0 | 0.00 | 0.00 | 0.00 | 17 | 1018.2 |
| 20260508052713 | 59 | 234 | 3.0 | 5.0 | 0.00 | 0.00 | 0.00 | 17 | 1018.2 |
| 20260508052213 | 59 | 213 | 2.0 | 5.0 | 0.00 | 0.00 | 0.00 | 16 | 1018.2 |
| 20260508051713 | 59 | 245 | 2.0 | 3.0 | 0.00 | 0.00 | 0.00 | 16 | 1018.2 |
| 20260508050212 | 60 | 214 | 3.0 | 6.0 | 0.00 | 0.00 | 0.00 | 16 | 1018.2 |
| 20260508045712 | 60 | 230 | 2.0 | 6.0 | 0.00 | 0.00 | 0.00 | 16 | 1018.4 |
| 20260508044213 | 60 | 219 | 1.0 | 3.0 | 0.00 | 0.00 | 0.00 | 16 | 1018.1 |
| 20260508042712 | 61 | 280 | 0.0 | 1.0 | 0.00 | 0.00 | 0.00 | 15 | 1018.2 |
| 20260508042213 | 61 | 280 | 0.0 | 2.0 | 0.00 | 0.00 | 0.00 | 15 | 1018.2 |
| 20260508040712 | 62 | 288 | 2.0 | 3.0 | 0.00 | 0.00 | 0.00 | 14 | 1018.3 |
| 20260508040212 | 62 | 283 | 1.0 | 3.0 | 0.00 | 0.00 | 0.00 | 14 | 1018.2 |
| 20260508035712 | 63 | 292 | 2.0 | 5.0 | 0.00 | 0.00 | 0.00 | 13 | 1018.2 |
| 20260508034713 | 63 | 297 | 1.0 | 5.0 | 0.00 | 0.00 | 0.00 | 13 | 1018.1 |
| 20260508033214 | 64 | 296 | 2.0 | 5.0 | 0.00 | 0.00 | 0.00 | 12 | 1017.8 |
| 20260508032712 | 65 | 296 | 1.0 | 6.0 | 0.00 | 0.00 | 0.00 | 12 | 1017.7 |
| 20260508031712 | 66 | 303 | 2.0 | 6.0 | 0.00 | 0.00 | 0.00 | 11 | 1017.6 |
| 20260508031212 | 66 | 304 | 2.0 | 6.0 | 0.00 | 0.00 | 0.00 | 11 | 1017.5 |
| 20260508030713 | 66 | 287 | 2.0 | 6.0 | 0.00 | 0.00 | 0.00 | 10 | 1017.4 |
| 20260508030213 | 67 | 300 | 2.0 | 6.0 | 0.00 | 0.00 | 0.00 | 10 | 1017.4 |
| 20260508025712 | 67 | 301 | 3.0 | 7.0 | 0.00 | 0.00 | 0.00 | 10 | 1017.4 |
| 20260508025212 | 67 | 303 | 2.0 | 7.0 | 0.00 | 0.00 | 0.00 | 10 | 1017.3 |
| 20260508024713 | 68 | 297 | 1.0 | 5.0 | 0.00 | 0.00 | 0.00 | 10 | 1017.2 |
| 20260508022212 | 70 | 300 | 1.0 | 5.0 | 0.00 | 0.00 | 0.00 | 9 | 1016.9 |
| 20260508020712 | 71 | 326 | 1.0 | 5.0 | 0.00 | 0.00 | 0.00 | 9 | 1016.7 |
| 20260508020212 | 71 | 305 | 2.0 | 5.0 | 0.00 | 0.00 | 0.00 | 9 | 1016.6 |
| 20260508014712 | 72 | 297 | 0.0 | 7.0 | 0.00 | 0.00 | 0.00 | 10 | 1016.6 |
| 20260508014213 | 72 | 239 | 1.0 | 8.0 | 0.00 | 0.00 | 0.00 | 12 | 1016.5 |
| 20260508013712 | 72 | 270 | 2.0 | 8.0 | 0.00 | 0.00 | 0.00 | 12 | 1016.5 |
| 20260508013213 | 73 | 159 | 3.0 | 6.0 | 0.00 | 0.00 | 0.00 | 13 | 1016.3 |
| 20260508012212 | 73 | 225 | 2.0 | 6.0 | 0.00 | 0.00 | 0.00 | 13 | 1016.2 |
| 20260508010712 | 74 | 158 | 3.0 | 8.0 | 0.00 | 0.00 | 0.00 | 13 | 1016.1 |
| 20260508005712 | 74 | 159 | 4.0 | 8.0 | 0.00 | 0.00 | 0.00 | 12 | 1016.1 |
| 20260508002712 | 75 | 169 | 3.0 | 10.0 | 0.00 | 0.00 | 0.00 | 11 | 1016.1 |
| 20260507235713 | 75 | 181 | 5.0 | 12.0 | 0.00 | 0.00 | 0.00 | 10 | 1016.3 |
| 20260507234212 | 76 | 155 | 6.0 | 12.0 | 0.00 | 0.00 | 0.00 | 11 | 1016.4 |
| 20260507231712 | 75 | 151 | 6.0 | 13.0 | 0.00 | 0.00 | 0.00 | 10 | 1016.7 |
| 20260507231212 | 75 | 166 | 6.0 | 14.0 | 0.00 | 0.00 | 0.00 | 10 | 1016.7 |
| 20260507230712 | 76 | 162 | 8.0 | 14.0 | 0.00 | 0.00 | 0.00 | 11 | 1016.8 |
| 20260507230212 | 75 | 159 | 7.0 | 12.0 | 0.00 | 0.00 | 0.00 | 11 | 1016.9 |
| 20260507224712 | 75 | 160 | 2.0 | 12.0 | 0.00 | 0.00 | 0.00 | 10 | 1017.1 |
| 20260507224212 | 76 | 183 | 7.0 | 12.0 | 0.00 | 0.00 | 0.00 | 9 | 1017.1 |
| 20260507223713 | 76 | 176 | 6.0 | 16.0 | 0.00 | 0.00 | 0.00 | 10 | 1017.1 |
| 20260507223212 | 75 | 165 | 5.0 | 16.0 | 0.00 | 0.00 | 0.00 | 10 | 1017.1 |
| 20260507222213 | 75 | 158 | 6.0 | 12.0 | 0.00 | 0.00 | 0.00 | 11 | 1017.3 |
| 20260507220712 | 75 | 160 | 4.0 | 9.0 | 0.00 | 0.00 | 0.00 | 12 | 1017.6 |
| 20260507220213 | 74 | 159 | 5.0 | 12.0 | 0.00 | 0.00 | 0.00 | 13 | 1017.7 |
| 20260507213713 | 75 | 133 | 5.0 | 13.0 | 0.00 | 0.00 | 0.00 | 14 | 1018.2 |
| 20260507213212 | 74 | 137 | 6.0 | 14.0 | 0.00 | 0.00 | 0.00 | 14 | 1018.4 |
| 20260507212712 | 74 | 188 | 8.0 | 14.0 | 0.00 | 0.00 | 0.00 | 15 | 1018.5 |
| 20260507212212 | 74 | 162 | 6.0 | 13.0 | 0.00 | 0.00 | 0.00 | 15 | 1018.6 |
| 20260507210712 | 75 | 118 | 6.0 | 12.0 | 0.00 | 0.00 | 0.00 | 16 | 1019.0 |
| 20260507205712 | 73 | 147 | 7.0 | 12.0 | 0.00 | 0.00 | 0.00 | 16 | 1019.4 |
| 20260507205214 | 73 | 166 | 6.0 | 10.0 | 0.00 | 0.00 | 0.00 | 15 | 1019.5 |
| 20260507204212 | 73 | 267 | 3.0 | 10.0 | 0.00 | 0.00 | 0.00 | 15 | 1019.7 |
| 20260507203213 | 72 | 262 | 3.0 | 10.0 | 0.00 | 0.00 | 0.00 | 15 | 1019.8 |
| 20260507200712 | 73 | 162 | 4.0 | 7.0 | 0.00 | 0.00 | 0.00 | 17 | 1020.4 |
| 20260507200212 | 72 | 314 | 4.0 | 9.0 | 0.00 | 0.00 | 0.00 | 17 | 1020.4 |
| 20260507193711 | 70 | 238 | 3.0 | 9.0 | 0.00 | 0.00 | 0.00 | 18 | 1020.9 |
| 20260507191212 | 70 | 81 | 2.0 | 8.0 | 0.00 | 0.00 | 0.00 | 19 | 1021.4 |
| 20260507190712 | 69 | 64 | 4.0 | 10.0 | 0.00 | 0.00 | 0.00 | 20 | 1021.5 |
| 20260507190212 | 68 | 109 | 2.0 | 10.0 | 0.00 | 0.00 | 0.00 | 21 | 1021.6 |
| 20260507185212 | 67 | 216 | 4.0 | 9.0 | 0.00 | 0.00 | 0.00 | 21 | 1021.8 |
| 20260507184712 | 68 | 212 | 4.0 | 9.0 | 0.00 | 0.00 | 0.00 | 20 | 1021.9 |
| 20260507184212 | 70 | 239 | 3.0 | 6.0 | 0.00 | 0.00 | 0.00 | 21 | 1022.0 |
| 20260507183212 | 68 | 312 | 0.0 | 7.0 | 0.00 | 0.00 | 0.00 | 21 | 1022.2 |
| 20260507182712 | 68 | 80 | 1.0 | 9.0 | 0.00 | 0.00 | 0.00 | 21 | 1022.3 |
| 20260507181712 | 67 | 52 | 3.0 | 8.0 | 0.00 | 0.00 | 0.00 | 23 | 1022.4 |
| 20260507180712 | 64 | 135 | 1.0 | 6.0 | 0.00 | 0.00 | 0.00 | 25 | 1022.7 |
| 20260507173213 | 65 | 262 | 2.0 | 6.0 | 0.00 | 0.00 | 0.00 | 25 | 1023.3 |
| 20260507172712 | 65 | 6 | 3.0 | 7.0 | 0.00 | 0.00 | 0.00 | 26 | 1023.4 |
| 20260507171712 | 64 | 56 | 1.0 | 6.0 | 0.00 | 0.00 | 0.00 | 28 | 1023.6 |
| 20260507170712 | 63 | 54 | 3.0 | 7.0 | 0.00 | 0.00 | 0.00 | 29 | 1023.7 |
| 20260507165712 | 62 | 29 | 4.0 | 9.0 | 0.00 | 0.00 | 0.00 | 30 | 1023.9 |
| 20260507162212 | 58 | 351 | 5.0 | 9.0 | 0.00 | 0.00 | 0.00 | 39 | 1024.3 |
| 20260507161212 | 58 | 31 | 4.0 | 12.0 | 0.00 | 0.00 | 0.00 | 40 | 1024.6 |
| 20260507160712 | 57 | 38 | 5.0 | 12.0 | 0.00 | 0.00 | 0.00 | 42 | 1024.6 |
| 20260507155712 | 56 | 27 | 5.0 | 12.0 | 0.00 | 0.00 | 0.00 | 43 | 1024.6 |
| 20260507155213 | 56 | 36 | 6.0 | 12.0 | 0.00 | 0.00 | 0.00 | 44 | 1024.7 |
| 20260507154712 | 55 | 17 | 7.0 | 12.0 | 0.00 | 0.00 | 0.00 | 46 | 1024.7 |
| 20260507154212 | 54 | 8 | 4.0 | 9.0 | 0.00 | 0.00 | 0.00 | 48 | 1024.8 |
| 20260507152712 | 53 | 345 | 9.0 | 13.0 | 0.00 | 0.00 | 0.00 | 50 | 1025.0 |
| 20260507150712 | 51 | 7 | 6.0 | 14.0 | 0.00 | 0.00 | 0.00 | 53 | 1025.1 |
| 20260507144711 | 49 | 345 | 8.0 | 15.0 | 0.00 | 0.00 | 0.00 | 58 | 1025.1 |
| 20260507143212 | 48 | 340 | 7.0 | 12.0 | 0.00 | 0.00 | 0.00 | 62 | 1025.3 |
| 20260507142211 | 47 | 348 | 8.0 | 13.0 | 0.00 | 0.00 | 0.00 | 63 | 1025.3 |
| 20260507140713 | 46 | 2 | 8.0 | 14.0 | 0.00 | 0.00 | 0.00 | 66 | 1025.2 |
| 20260507140212 | 46 | 354 | 9.0 | 15.0 | 0.00 | 0.00 | 0.00 | 66 | 1025.3 |
| 20260507135713 | 45 | 349 | 7.0 | 15.0 | 0.00 | 0.00 | 0.00 | 67 | 1025.4 |
| 20260507135212 | 45 | 341 | 10.0 | 14.0 | 0.00 | 0.00 | 0.00 | 67 | 1025.4 |
| 20260507133712 | 44 | 355 | 7.0 | 15.0 | 0.00 | 0.00 | 0.00 | 70 | 1025.3 |
| 20260507133212 | 44 | 346 | 7.0 | 15.0 | 0.00 | 0.00 | 0.00 | 70 | 1025.3 |
| 20260507131712 | 43 | 342 | 8.0 | 15.0 | 0.00 | 0.00 | 0.00 | 72 | 1025.2 |
| 20260507125712 | 42 | 340 | 6.0 | 13.0 | 0.00 | 0.00 | 0.00 | 72 | 1025.1 |
| 20260507125212 | 42 | 351 | 7.0 | 12.0 | 0.00 | 0.00 | 0.00 | 72 | 1025.1 |
| 20260507123712 | 42 | 357 | 8.0 | 13.0 | 0.00 | 0.00 | 0.00 | 70 | 1025.2 |
| 20260507123213 | 42 | 357 | 6.0 | 12.0 | 0.00 | 0.00 | 0.00 | 70 | 1025.1 |
| 20260507122712 | 42 | 0 | 6.0 | 12.0 | 0.00 | 0.00 | 0.00 | 68 | 1025.1 |
| 20260507122211 | 42 | 358 | 6.0 | 12.0 | 0.00 | 0.00 | 0.00 | 68 | 1025.1 |
| 20260507121712 | 42 | 344 | 7.0 | 12.0 | 0.00 | 0.00 | 0.00 | 68 | 1024.9 |
| 20260507120712 | 42 | 339 | 6.0 | 10.0 | 0.00 | 0.00 | 0.00 | 68 | 1024.8 |
| 20260507120212 | 42 | 354 | 7.0 | 10.0 | 0.00 | 0.00 | 0.00 | 68 | 1024.8 |
| 20260507115212 | 42 | 353 | 6.0 | 10.0 | 0.00 | 0.00 | 0.00 | 68 | 1024.8 |
| 20260507114712 | 42 | 342 | 6.0 | 10.0 | 0.00 | 0.00 | 0.00 | 67 | 1024.7 |
| 20260507113712 | 42 | 342 | 5.0 | 10.0 | 0.00 | 0.00 | 0.00 | 66 | 1024.8 |
| 20260507112712 | 42 | 340 | 5.0 | 10.0 | 0.00 | 0.00 | 0.00 | 65 | 1024.8 |
| 20260507112212 | 42 | 335 | 6.0 | 9.0 | 0.00 | 0.00 | 0.00 | 65 | 1024.8 |
| 20260507111712 | 42 | 340 | 6.0 | 9.0 | 0.00 | 0.00 | 0.00 | 64 | 1024.8 |
| 20260507111212 | 42 | 340 | 5.0 | 9.0 | 0.00 | 0.00 | 0.00 | 63 | 1024.9 |
| 20260507110711 | 42 | 344 | 5.0 | 9.0 | 0.00 | 0.00 | 0.00 | 62 | 1024.8 |
| 20260507104712 | 43 | 16 | 2.0 | 6.0 | 0.00 | 0.00 | 0.00 | 58 | 1024.8 |
| 20260507102212 | 44 | 351 | 7.0 | 12.0 | 0.00 | 0.00 | 0.00 | 55 | 1024.7 |
| 20260507100211 | 44 | 337 | 5.0 | 8.0 | 0.00 | 0.00 | 0.00 | 51 | 1024.6 |
| 20260507095212 | 44 | 334 | 5.0 | 9.0 | 0.00 | 0.00 | 0.00 | 47 | 1024.5 |
| 20260507094713 | 44 | 321 | 4.0 | 7.0 | 0.00 | 0.00 | 0.00 | 47 | 1024.5 |
| 20260507093712 | 44 | 335 | 3.0 | 6.0 | 0.00 | 0.00 | 0.00 | 43 | 1024.4 |
| 20260507092712 | 44 | 349 | 3.0 | 6.0 | 0.00 | 0.00 | 0.00 | 39 | 1024.3 |
| 20260507091711 | 45 | 354 | 5.0 | 8.0 | 0.00 | 0.00 | 0.00 | 38 | 1024.2 |
| 20260507090712 | 45 | 356 | 4.0 | 9.0 | 0.00 | 0.00 | 0.00 | 37 | 1024.2 |
| 20260507085212 | 46 | 356 | 4.0 | 7.0 | 0.00 | 0.00 | 0.00 | 35 | 1024.3 |
| 20260507083712 | 47 | 344 | 3.0 | 9.0 | 0.00 | 0.00 | 0.00 | 34 | 1024.1 |
| 20260507082712 | 47 | 340 | 5.0 | 9.0 | 0.00 | 0.00 | 0.00 | 34 | 1024.0 |
| 20260507081212 | 47 | 359 | 5.0 | 9.0 | 0.00 | 0.00 | 0.00 | 36 | 1023.8 |
| 20260507073212 | 46 | 349 | 5.0 | 10.0 | 0.00 | 0.00 | 0.00 | 36 | 1023.4 |
| 20260507072712 | 46 | 303 | 5.0 | 10.0 | 0.00 | 0.00 | 0.00 | 36 | 1023.3 |
| 20260507071212 | 46 | 307 | 4.0 | 9.0 | 0.00 | 0.00 | 0.00 | 36 | 1023.2 |
| 20260507070712 | 47 | 303 | 3.0 | 8.0 | 0.00 | 0.00 | 0.00 | 35 | 1023.1 |
| 20260507064711 | 47 | 298 | 2.0 | 8.0 | 0.00 | 0.00 | 0.00 | 36 | 1023.2 |
| 20260507064212 | 47 | 296 | 3.0 | 9.0 | 0.00 | 0.00 | 0.00 | 36 | 1023.2 |
| 20260507063712 | 48 | 296 | 3.0 | 9.0 | 0.00 | 0.00 | 0.00 | 36 | 1023.1 |
| 20260507063211 | 48 | 298 | 4.0 | 8.0 | 0.00 | 0.00 | 0.00 | 36 | 1023.1 |
| 20260507062712 | 48 | 298 | 3.0 | 10.0 | 0.00 | 0.00 | 0.00 | 36 | 1023.1 |
| 20260507062212 | 48 | 301 | 5.0 | 10.0 | 0.00 | 0.00 | 0.00 | 36 | 1023.1 |
| 20260507061211 | 49 | 313 | 5.0 | 10.0 | 0.00 | 0.00 | 0.00 | 36 | 1023.0 |
| 20260507060211 | 49 | 296 | 3.0 | 9.0 | 0.00 | 0.00 | 0.00 | 35 | 1022.9 |
| 20260507054712 | 50 | 295 | 1.0 | 7.0 | 0.00 | 0.00 | 0.00 | 37 | 1022.8 |